Regional Weather Roundup
Issued by NWS Midland/Odessa, TX

Skip options and go directly to product.
Home | Oldest Version | Next Version | Current Version | All | Text Only | Save Text | Print | Product List | Glossary On

Skip product version selection by date and time.   
297
ASUS44 KMAF 192210
RWRMAF
MIDLAND AREA WEATHER ROUNDUP
NATIONAL WEATHER SERVICE MIDLAND TX
500 PM CDT FRI SEP 19 2014

...IN SOUTHWEST TEXAS AND SOUTHEAST NEW MEXICO...

CITY           SKY/WX    TMP DP  RH WIND       PRES   REMARKS
ALPINE         MOSUNNY   83  65  54 N14       30.04R
ANDREWS        CLOUDY    74  68  79 SE13      29.96S
ARTESIA        NOT AVBL
BIG SPRING     CLOUDY    79  72  78 E10       29.96F
CARLSBAD       TSTM      77  77 100 SE7       29.90S FOG
DRYDEN           N/A     93  67  42 E14       29.84F
FORT STOCKTON  MOSUNNY   79  71  76 E9        29.91S
GUAD PASS      MOSUNNY   75  62  64 SW22G32   30.09F
HOBBS          LGT RAIN  66  66 100 E9        29.99S FOG
MARFA          MOSUNNY   82  63  51 CALM      30.02F
MIDLAND AIRPK  PTSUNNY   78  69  73 E12G17    29.95F
MIDLAND INTL   CLOUDY    77  69  76 SE14      29.94S
ODESSA         MOSUNNY   76  67  73 SE12      29.95S
PECOS          SUNNY     83  69  62 E14       29.87F
PRESIDIO       FAIR      92  62  36 S8        29.84F
SEMINOLE       HVY RAIN  69  67  96 E3        29.98F
SNYDER         PTSUNNY   77  69  75 SE12      29.95F
WINK           MOSUNNY   79  69  71 SE10      29.89F
$$
...OTHER STATIONS IN TEXAS...

CITY           SKY/WX    TMP DP  RH WIND       PRES   REMARKS
ABILENE        PTSUNNY   83  66  56 SE12      29.93F
AMARILLO       PTSUNNY   73  67  81 S12       30.01F
AUSTIN         CLOUDY    85  72  65 NE7       29.87S
BROWNSVILLE    PTSUNNY   89  78  70 SE14      29.79R HX 103
CORPUS CHRISTI CLOUDY    82  76  81 E21       29.82F
DALLAS FTW     PTSUNNY   88  66  48 SE10      29.89F
DEL RIO        PTSUNNY   91  70  49 SE8       29.79F
EL PASO        MOSUNNY   83  61  47 W10       29.94F
HOUSTON INT    CLOUDY    83  74  74 E9        29.88S
LUBBOCK        PTSUNNY   73  66  78 SE13      29.98F
SAN ANGELO     LGT RAIN  78  72  81 E14       29.92F
SAN ANTONIO    PTSUNNY   88  72  58 E13G20    29.86S
WACO           MOSUNNY   85  70  60 SE7       29.88F
WICHITA FALLS  NOT AVBL
$$
...OTHER LOCATIONS IN NEW MEXICO...

CITY           SKY/WX    TMP DP  RH WIND       PRES   REMARKS
ALAMAGORDO     CLOUDY    77  64  65 S6        29.97F
ALBUQUERQUE    MOSUNNY   81  54  39 VRB6      30.02F
CANNON AFB     PTSUNNY   76  62  62 SE12      30.01F
CLOVIS           N/A     72  64  78 S7        30.04F
HOLLOMAN AFB   PTSUNNY   78  64  62 SW5       29.95F
ROSWELL        CLOUDY    72  68  87 NE7       29.95S
RUIDOSO        LGT RAIN  63  61  94 SE7       30.15R
SANTA FE       MOSUNNY   81  46  29 VRB5G16   30.06F
TRUTH OR CONSE SUNNY     82  58  43 NE7       29.99F
TUCUMCARI      PTSUNNY   78  59  51 SW12      29.97F
$$

USA.gov is the U.S. government's official web portal to all federal, state and local government web resources and services.